Cloud_Cover
38 5 80 100 100 100 100 100 100 100 100 100 100 100 100 100 5 0 0 0 0 0 0 0 0 0 0 3 0 1 5 94 99 40 2 22 0 0 0 6 1 0 1 5 33 100 100 100 100
29 75 75 100 100 100 100 100 100 100 100 97 100 90 99 100 34 4 16 0 0 0 0 5 1 0 0 1 5 4 33 100 100 100 86 95 1 2 7 1 3 2 1 0 0 34 95 55 100
4 78 100 100 100 100 100 100 100 100 97 100 100 88 100 100 81 1 0 0 0 4 2 10 0 3 0 5 4 11 13 22 14 71 100 18 4 2 5 2 0 12 0 0 8 2 2 16 100
53 100 100 100 100 100 100 100 100 100 100 100 100 98 100 100 74 12 0 0 1 3 1 6 0 0 5 22 8 5 20 8 32 5 61 5 5 0 12 46 0 0 10 0 0 0 5 54 5
95 96 100 100 100 100 100 100 100 100 100 65 100 69 100 100 80 100 1 0 4 1 0 4 0 4 13 11 14 68 14 31 7 57 6 4 5 6 5 14 18 6 2 3 1 5 10 5 5
97 100 100 100 100 99 100 100 95 100 92 100 100 86 98 99 74 100 0 0 0 0 1 0 5 18 76 83 5 28 15 71 99 5 1 17 4 10 5 5 17 5 5 5 6 5 5 38 89
61 100 98 100 100 100 100 100 100 100 99 100 46 97 100 98 76 100 0 0 0 2 5 0 0 12 79 67 5 42 100 79 99 87 96 12 6 5 26 5 20 2 5 5 6 9 5 4 25
7 100 100 100 100 100 100 100 100 100 100 100 100 57 100 100 80 98 36 30 36 28 18 11 0 1 0 5 5 5 97 27 100 56 17 12 20 51 100 3 5 1 5 5 5 5 5 6 5
82 92 100 100 100 100 100 100 100 100 100 100 100 100 100 100 72 100 100 69 77 60 26 13 20 2 3 0 5 76 95 100 99 14 87 6 42 100 100 4 33 0 5 4 0 0 5 5 9
13 54 95 100 100 100 100 100 100 100 100 100 100 100 93 100 63 99 100 44 100 100 74 19 4 0 0 5 4 9 5 69 80 47 5 17 37 100 96 14 50 6 1 0 0 0 0 2 13
5 15 100 100 98 100 98 100 100 100 100 100 92 97 68 100 97 36 100 98 6 85 68 24 6 8 1 45 8 10 5 43 85 5 5 31 16 100 95 97 24 14 1 0 0 0 6 0 0
4 0 70 100 59 100 100 100 100 100 100 100 99 61 55 30 7 6 63 100 74 100 61 18 10 24 5 18 13 36 36 6 7 34 30 12 84 4 2 4 3 1 0 0 0 0 0 0 0
0 1 27 59 100 100 100 100 100 100 100 100 100 26 18 5 5 13 5 100 22 50 14 9 10 18 4 20 24 18 4 4 0 1 5 5 5 62 5 1 1 1 0 0 0 0 0 0 0
0 0 5 82 100 100 93 100 100 100 93 67 100 90 52 5 5 73 80 67 37 0 0 0 0 2 0 13 13 10 4 3 0 1 1 5 10 6 5 3 0 0 0 0 0 0 0 7 8
0 0 5 62 100 100 100 100 100 100 100 52 80 97 91 62 86 19 48 20 3 3 0 0 0 0 0 0 0 0 5 2 6 5 0 4 2 7 5 4 0 0 0 0 0 0 0 35 0
0 0 5 6 100 100 100 100 100 100 100 100 66 100 97 82 91 28 13 2 2 4 0 0 0 0 0 0 0 0 5 4 12 5 0 0 0 8 0 0 0 0 0 0 0 0 0 61 4
0 0 1 43 79 100 100 100 100 100 100 100 96 74 89 100 100 75 6 0 5 32 1 0 0 0 0 0 0 0 4 4 4 9 0 0 0 0 0 0 0 0 0 0 0 0 0 0 0
0 0 0 29 7 100 100 100 86 95 82 100 63 55 85 100 100 39 4 0 0 4 5 0 0 0 0 0 0 0 0 0 0 0 0 0 0 0 2 0 0 0 0 0 0 0 0 0 0
0 0 0 0 72 83 100 86 6 17 100 100 54 7 74 62 97 91 5 0 0 0 9 1 0 0 0 0 0 0 0 10 0 0 0 0 1 4 2 0 0 0 0 0 0 0 0 0 0
0 0 0 0 5 1 57 58 5 5 100 89 98 5 52 98 77 35 5 0 0 2 1 39 0 0 0 0 0 0 0 0 0 0 0 0 0 0 1 0 0 0 0 0 0 0 0 0 0
0 0 0 0 0 0 3 3 2 4 0 52 28 47 8 46 13 59 5 0 0 5 0 77 2 0 0 0 0 0 0 1 0 0 0 0 2 0 0 0 0 0 0 0 0 0 0 0 0
0 0 0 0 0 0 0 0 0 0 0 0 5 5 19 58 6 5 0 1 4 4 4 0 0 0 0 0 0 0 0 0 0 0 0 0 0 0 0 0 0 0 0 0 0 0 0 0 0
0 0 0 0 0 0 0 0 0 0 0 2 0 34 92 97 14 0 0 0 5 2 16 0 0 0 0 0 0 0 0 0 0 0 0 0 0 0 0 0 0 0 0 0 0 0 0 0 0
0 0 0 0 0 0 0 0 0 10 0 0 0 4 22 83 99 11 4 4 0 5 18 7 0 0 0 0 0 0 0 0 0 0 0 0 0 0 1 0 0 0 0 0 0 0 0 0 0
0 0 0 0 0 0 0 0 0 0 0 0 0 0 1 5 78 75 11 37 7 1 49 9 0 0 0 0 0 0 0 0 0 0 0 0 0 0 0 0 0 0 0 0 0 0 0 0 0
0 0 0 0 0 0 0 0 0 0 0 0 0 0 4 55 16 80 67 77 4 22 2 0 0 0 0 0 0 0 0 0 0 0 0 0 0 0 0 0 0 0 0 0 0 0 0 0 0
0 0 0 0 0 0 0 0 0 0 0 1 10 21 18 80 53 96 45 85 10 5 0 0 0 0 0 0 0 0 0 0 0 0 0 0 0 0 0 1 0 0 0 0 0 0 0 0 0
0 0 0 0 0 0 0 0 62 17 57 64 88 100 99 5 5 93 76 32 26 5 1 0 1 0 0 0 0 0 0 0 0 0 0 0 0 0 0 0 0 0 0 0 0 0 0 0 0
0 0 0 0 0 0 0 34 1 71 100 99 100 100 100 100 68 20 93 59 100 100 74 15 0 1 0 0 0 0 0 0 0 0 0 0 0 0 0 0 0 0 0 0 0 0 0 0 0
0 0 0 0 0 0 0 0 0 96 100 100 100 100 100 100 100 98 76 94 100 100 100 100 29 72 24 0 3 11 8 0 0 0 0 0 0 0 0 0 0 0 0 0 0 0 0 0 0